Location: Gellin
(53.4498°N, 14.3207°E)
Time: 23:20:33
(UTC+00:00)

Cosmos 2237 - Pass Details

Date: 03 March 2021
Orbit: 845 x 857 km, 70.9° (Epoch: 12 April)

Event Time Altitude Azimuth Distance (km) Brightness Sun altitude
Rises 18:08:32 0° 196° (SSW) 3,412 7.5 -13.3°
Reaches altitude 10° 18:11:00 10° 193° (SSW) 2,481 6.7 -13.6°
Maximum altitude 18:16:36 59° 115° (ESE) 985 4.2 -14.4°
Drops below altitude 10° 18:22:14 10° 37° (NE) 2,502 6.4 -15.3°
Sets 18:24:44 0° 34° (NE) 3,442 7.1 -15.6°
